Find INTELSAT III F-4

NORAD ID: 3947 Int'l Des: 1969-045 Owner: INTEL Country: I-INT operational
HEOCIRCULAR

Live Position

Loading 3D Globe...

About INTELSAT III F-4

Description loading...

Upcoming Passes

Passes for default location (London). Set your location on the main map for personalized predictions.

Altitude History

Loading altitude history...

Two-Line Element Set

1 3947U 69045A 26105.43145161 -.00000106 00000-0 00000+0 0 9993
2 3947 3.9131 288.6116 0024816 76.0958 300.3791 0.90044945 65403
Epoch: Apr 15, 2026 • Age: 12 hours

Current Status

Altitude 38943.8 km
Velocity 2.96 km/s
Sub-Earth Point 0.11°N, 71.86°W
Type communications

Most Searched